Regional Weather Roundup
Issued by NWS Jackson, KY

Home | Current Version | Previous Version | Graphics & Text | Print | Product List | Glossary On
Versions: 1 2 3 4 5 6 7 8 9 10 11 12 13 14 15 16 17 18 19 20 21 22 23 24 25 26 27 28
000
ASUS43 KJKL 222310
RWRJKL

EAST KENTUCKY HOURLY WEATHER ROUNDUP
NATIONAL WEATHER SERVICE JACKSON KY
600 PM EST WED FEB 22 2017

NOTE: "FAIR" INDICATES FEW OR NO CLOUDS BELOW 12,000 FEET WITH
NO SIGNIFICANT WEATHER AND/OR OBSTRUCTIONS TO VISIBILITY.

* THESE REPORTS ARE NOT UNDER NWS QUALITY CONTROL AND MAY NOT
  REPORT WEATHER SUCH AS PRECIPITATION AND FOG.

KYZ079-080-083-085-087-088-110-112-115-119-120-230000
...EASTERN KENTUCKY...

CITY           SKY/WX    TMP DP  RH WIND       PRES   REMARKS
JACKSON        MOCLDY    60  55  83 CALM      29.87S
LONDON         CLOUDY    63  53  70 S6        29.87S
SOMERSET*      CLEAR     63  54  72 S3        29.87S
MONTICELLO*    PTCLDY    65  56  72 VRB6      29.87S
WILLIAMSBURG*  CLOUDY    63  57  82 SE7       29.87S
MIDDLESBORO*   CLOUDY    59  55  87 CALM      29.90F
HARLAN APT*    CLOUDY    59  52  77 CALM      29.90S
PIKE CO APT*   CLOUDY    59  57  94 CALM      29.88S
BIG SANDY APT* CLOUDY    59  57  94 CALM      29.87F
MOREHEAD APT*  PTCLDY    63  55  77 S7        29.86S
ASHLAND*       CLOUDY    59  55  88 SE6       29.83F
$$

KYZ035-036-041-042-044-050-067-078-099-230000
...CENTRAL KENTUCKY...

CITY           SKY/WX    TMP DP  RH WIND       PRES   REMARKS
MT STERLING*   CLEAR     63  55  77 SW7       29.86R
FLEMING/MASON* PTCLDY    61  57  86 S6        29.84R
DANVILLE*      MOCLDY    64  55  72 S6        29.85S
LEXINGTON      CLEAR     66  55  67 S7        29.83R
FRANKFORT      CLOUDY    68  54  60 S9        29.80S
LOUISVILLE     MOCLDY    69  54  58 S10       29.80S
LEBANON*         N/A     66  57  72 S7        29.83S
GLASGOW*       CLOUDY    67  55  66 SW7       29.84S
BOWLING GREEN  MOCLDY    69  57  65 S9        29.82F
$$

KYZ091>093-OHZ055-061-077-WVZ005-015-034-035-042-230000
...SOUTHERN OHIO/WEST VIRGINIA...

CITY           SKY/WX    TMP DP  RH WIND       PRES   REMARKS
COVINGTON      MOCLDY    64  57  78 CALM      29.80R
COLUMBUS       CLOUDY    60  54  80 S12       29.82S
DAYTON         CLOUDY    60  56  86 S5        29.81R FOG
WILMINGTON     CLOUDY    59  56  89 S3        29.81S
HUNTINGTON     CLOUDY    58  54  86 S5        29.85F
CHARLESTON     CLOUDY    58  54  86 SE3       29.87S
PINEVILLE*     CLOUDY    57  53  87 MISG      29.95S
BECKLEY        CLOUDY    53  51  93 S5        29.91F
BLUEFIELD      CLOUDY    53  49  86 S5        29.94S
LOGAN CO APT*    N/A     57  54  88 S6        29.87F
$$

VAZ002-007-008-TNZ017-027-036-066-071-230000
...SOUTHWEST VIRGINIA/EAST TENNESSEE...

CITY           SKY/WX    TMP DP  RH WIND       PRES   REMARKS
WISE*          CLOUDY    55  55 100 CALM      29.93F
JONESVILLE*      N/A     59  55  88 CALM      29.92F
ABINGDON*      CLOUDY    56  56  97 E6        29.93R
BRISTOL        CLOUDY    57  55  93 E6        29.91S
MORRISTOWN*    CLEAR     59  55  88 E5        29.89S
SEVIERVILLE*   CLOUDY    57  55  94 CALM      29.89R
KNOXVILLE      CLOUDY    59  55  87 N10       29.88R
LAFOLLETTE*    CLOUDY    59  55  88 CALM      29.92F
OAK RIDGE      PTCLDY    60  55  83 E3        29.90S
CROSSVILLE     MOCLDY    61  54  77 CALM      29.89S
NASHVILLE      MOCLDY    67  56  67 S6        29.85R
$$

...KEY TO REMARKS...
VSB - VISIBILITY IN MILES
WCI - WIND CHILL INDEX
HX  - HEAT INDEX

$$




USA.gov is the U.S. government's official web portal to all federal, state and local government web resources and services.